Weather History for Taunton, MA

Change the Weather History Date:

Monday, January 28, 2013

  Actual Average Record
Temperature  
Mean Temperature 22 °F -  
Max Temperature 33 °F 36 °F 57 °F (1976)
Min Temperature 10 °F 16 °F -13 °F (1961)
Degree Days  
Heating Degree Days 44    
Moisture  
Dew Point 21 °F    
Average Humidity 77    
Maximum Humidity 89    
Minimum Humidity 28    
Precipitation  
Precipitation 0.15 in - - ()
Sea Level Pressure  
Sea Level Pressure 30.19 in    
Wind  
Wind Speed 2 mph (SSE)    
Max Wind Speed 12 mph    
Max Gust Speed 17 mph    
Visibility 5 miles    
Events Rain , Snow    
Averages and records for this station are not official NWS values.
T = Trace of Precipitation, MM = Missing Value Source: NWS Daily Summary

Daily Weather History Graph

Daily Weather History Graph

Search for Another Location

Airport:

Trip Planner

Search our weather history database for the weather conditions in past years. The results will help you decide how hot, cold, wet, or windy it might be!

Date:

Astronomy

Jan. 28, 2013 Rise Set
Actual Time 7:00 AM EST 4:54 PM EST
Civil Twilight 6:30 AM EST 5:24 PM EST
Nautical Twilight 5:56 AM EST 5:57 PM EST
Astronomical Twilight 5:24 AM EST 6:30 PM EST
Moon 6:48 PM EST (1/28) 7:22 AM EST (1/28)
Length of Visible Light 10h 53m
Length of Day
9h 54m
Full, 98% of the Moon is Illuminated
Jan 28
Full
Feb 3
Last Quarter
Feb 10
New
Feb 17
First Quarter
Feb 25
Full

Hourly Weather History & Observations

Time (EST) Temp. Windchill Dew Point Humidity Pressure Visibility Wind Dir Wind Speed Gust Speed Precip Events Conditions
12:52 AM 10.9 °F - 6.1 °F 81% 30.44 in 9.0 mi Calm Calm - N/A   Clear
1:52 AM 12.0 °F - 5.0 °F 73% 30.45 in 9.0 mi Calm Calm - N/A   Clear
2:52 AM 12.0 °F - 6.1 °F 77% 30.44 in 10.0 mi Calm Calm - N/A   Clear
3:52 AM 12.9 °F - 7.0 °F 77% 30.43 in 10.0 mi Calm Calm - N/A   Clear
4:52 AM 12.9 °F - 7.0 °F 77% 30.42 in 10.0 mi Calm Calm - N/A   Scattered Clouds
5:52 AM 14.0 °F - 7.0 °F 74% 30.43 in 10.0 mi Calm Calm - N/A   Clear
6:52 AM 14.0 °F - 8.1 °F 77% 30.41 in 10.0 mi Calm Calm - N/A   Mostly Cloudy
7:52 AM 19.0 °F - 10.9 °F 71% 30.41 in 10.0 mi Calm Calm - N/A   Overcast
8:52 AM 25.0 °F - 12.9 °F 60% 30.41 in 10.0 mi Calm Calm - N/A   Overcast
9:52 AM 30.0 °F - 5.0 °F 35% 30.40 in 10.0 mi Calm Calm - N/A   Scattered Clouds
10:52 AM 30.9 °F 26.2 °F 3.9 °F 32% 30.38 in 10.0 mi South 4.6 mph - N/A   Overcast
11:52 AM 32.0 °F 26.4 °F 1.9 °F 28% 30.34 in 10.0 mi SSW 5.8 mph - N/A   Overcast
12:52 PM 33.1 °F 26.9 °F 6.1 °F 32% 30.29 in 10.0 mi SW 6.9 mph - N/A   Overcast
1:52 PM 30.9 °F 21.7 °F 15.1 °F 52% 30.25 in 5.0 mi SW 11.5 mph 17.3 mph 0.00 in Snow Light Snow
1:58 PM 30.0 °F 21.7 °F 17.1 °F 59% 30.25 in 2.0 mi SSW 9.2 mph - 0.00 in Snow Light Snow
2:16 PM 30.0 °F 24.1 °F 19.0 °F 64% 30.23 in 3.0 mi SSW 5.8 mph - 0.00 in Snow Light Snow
2:23 PM 30.0 °F 24.1 °F 19.9 °F 66% 30.23 in 3.0 mi SSW 5.8 mph - 0.00 in Snow Light Snow
2:32 PM 30.0 °F 23.2 °F 21.0 °F 69% 30.22 in 2.0 mi SW 6.9 mph - 0.00 in Snow Light Snow
2:37 PM 28.9 °F 21.9 °F 21.9 °F 75% 30.22 in 1.2 mi SW 6.9 mph - 0.00 in Snow Light Snow
2:52 PM 28.9 °F 22.8 °F 23.0 °F 78% 30.22 in 1.0 mi WSW 5.8 mph - 0.00 in Snow Light Snow
3:04 PM 28.9 °F 25.2 °F 23.0 °F 78% 30.21 in 0.8 mi WSW 3.5 mph - 0.00 in Snow Light Snow
3:12 PM 28.9 °F - 24.1 °F 82% 30.19 in 1.0 mi Calm Calm - 0.01 in Snow Light Snow
3:20 PM 28.9 °F 25.2 °F 24.1 °F 82% 30.18 in 0.8 mi SE 3.5 mph - 0.01 in Snow Light Snow
3:37 PM 28.9 °F - 25.0 °F 85% 30.17 in 1.2 mi Calm Calm - 0.01 in Snow Light Snow
3:52 PM 28.9 °F - 25.0 °F 85% 30.16 in 1.0 mi Calm Calm - 0.02 in Snow Light Snow
4:11 PM 28.9 °F - 25.0 °F 85% 30.15 in 1.5 mi Calm Calm - 0.00 in Snow Light Snow
4:25 PM 30.0 °F - 25.0 °F 82% 30.16 in 2.0 mi Calm Calm - 0.00 in Snow Light Snow
4:44 PM 30.0 °F - 25.0 °F 82% 30.16 in 3.0 mi Calm Calm - 0.01 in Snow Light Snow
4:52 PM 30.0 °F - 25.0 °F 82% 30.16 in 5.0 mi Calm Calm - 0.01 in Snow Light Snow
5:48 PM 28.4 °F 22.2 °F 24.8 °F 86% 30.11 in 2.0 mi ESE 5.8 mph - 0.02 in Snow Light Snow
5:52 PM 28.9 °F 21.9 °F 25.0 °F 85% 30.11 in 2.0 mi ESE 6.9 mph - 0.02 in Snow Light Snow
5:58 PM 28.9 °F 23.9 °F 26.1 °F 89% 30.11 in 1.8 mi ESE 4.6 mph - 0.00 in Snow Light Snow
6:08 PM 28.9 °F 21.9 °F 26.1 °F 89% 30.10 in 1.2 mi ESE 6.9 mph - 0.01 in Snow Light Snow
6:18 PM 28.9 °F 22.8 °F 26.1 °F 89% 30.10 in 1.8 mi ESE 5.8 mph - 0.01 in Snow Light Snow
6:26 PM 28.9 °F 22.8 °F 25.0 °F 85% 30.10 in 2.5 mi ESE 5.8 mph - 0.01 in Snow Light Snow
6:35 PM 28.9 °F 21.9 °F 25.0 °F 85% 30.09 in 3.0 mi ESE 6.9 mph - 0.01 in Snow Light Snow
6:52 PM 28.9 °F 23.9 °F 25.0 °F 85% 30.09 in 3.0 mi ESE 4.6 mph - 0.01 in   Overcast
7:04 PM 30.0 °F 26.5 °F 26.1 °F 85% 30.09 in 4.0 mi ESE 3.5 mph - 0.00 in Rain Light Freezing Rain
7:18 PM 28.9 °F 21.9 °F 26.1 °F 89% 30.08 in 7.0 mi ESE 6.9 mph - 0.00 in   Overcast
7:45 PM 30.0 °F 23.2 °F 26.1 °F 85% 30.07 in 4.0 mi ESE 6.9 mph - 0.01 in Rain Light Freezing Rain
7:52 PM 30.0 °F 23.2 °F 26.1 °F 85% 30.07 in 5.0 mi SE 6.9 mph - 0.01 in Rain Light Freezing Rain
8:02 PM 30.0 °F 24.1 °F 26.1 °F 85% 30.05 in 4.0 mi ESE 5.8 mph - 0.00 in   Overcast
8:09 PM 30.0 °F 24.1 °F 26.1 °F 85% 30.05 in 3.0 mi ESE 5.8 mph - 0.00 in Rain Light Freezing Rain
8:49 PM 30.2 °F 26.7 °F 26.6 °F 86% 30.05 in 4.0 mi East 3.5 mph - 0.03 in Rain Light Freezing Rain
8:52 PM 30.9 °F 27.5 °F 28.0 °F 89% 30.05 in 4.0 mi ESE 3.5 mph - 0.04 in Rain Light Freezing Rain
9:05 PM 30.9 °F 25.2 °F 28.0 °F 89% 30.03 in 4.0 mi SE 5.8 mph - 0.01 in Rain Light Freezing Rain
9:34 PM 30.9 °F 27.5 °F 28.0 °F 89% 30.02 in 4.0 mi Variable 3.5 mph - 0.02 in Rain Light Freezing Rain
9:48 PM 32.0 °F - 28.4 °F 87% 30.03 in 4.0 mi Calm Calm - 0.03 in Rain Light Freezing Rain
9:52 PM 32.0 °F - 28.9 °F 88% 30.02 in 4.0 mi Calm Calm - 0.03 in   Overcast
10:30 PM 32.0 °F - 28.9 °F 88% 30.00 in 3.0 mi Calm Calm - 0.01 in Rain Light Freezing Rain
10:42 PM 32.0 °F - 28.9 °F 88% 30.01 in 4.0 mi Calm Calm - 0.01 in   Overcast
10:52 PM 32.0 °F - 28.9 °F 88% 30.01 in 4.0 mi Calm Calm - 0.01 in   Overcast
11:52 PM 32.0 °F - 28.9 °F 88% 30.01 in 3.0 mi Calm Calm - 0.00 in   Overcast